This is the latest recevied weather packets stored in our database for station/object DG4MJS-10. If no packets are shown the sender has not sent any weather packets the latest 10 day(s).
| Time | Temp. | Humidity | Pressure | Rain* | Wind** | Luminosity | Snow |
|---|---|---|---|---|---|---|---|
| 1788016475 | 22.78° C | 45% | 1015.7 hPa | - | - | - | - |
| 1788015574 | 23.33° C | 46% | 1015.7 hPa | - | - | - | - |
| 1788014674 | 23.33° C | 44% | 1015.7 hPa | - | - | - | - |
| 1788013774 | 23.89° C | 42% | 1015.8 hPa | - | - | - | - |
| 1788012874 | 23.89° C | 42% | 1015.9 hPa | - | - | - | - |
| 1788011974 | 23.33° C | 45% | 1016 hPa | - | - | - | - |
| 1788011074 | 24.44° C | 43% | 1016 hPa | - | - | - | - |
| 1788010174 | 23.33° C | 46% | 1016.1 hPa | - | - | - | - |
| 1788009274 | 22.78° C | 48% | 1016.2 hPa | - | - | - | - |
| 1788008373 | 22.78° C | 48% | 1016.3 hPa | - | - | - | - |
| 1788007473 | 22.22° C | 49% | 1016.6 hPa | - | - | - | - |
| 1788006573 | 21.67° C | 50% | 1016.8 hPa | - | - | - | - |
| 1788005673 | 22.22° C | 51% | 1016.8 hPa | - | - | - | - |
| 1788004773 | 22.22° C | 51% | 1016.9 hPa | - | - | - | - |
| 1788003873 | 21.67° C | 52% | 1017 hPa | - | - | - | - |
| 1788002972 | 21.67° C | 53% | 1017.1 hPa | - | - | - | - |
| 1788002072 | 21.67° C | 53% | 1017.4 hPa | - | - | - | - |
| 1788001172 | 21.67° C | 57% | 1017.4 hPa | - | - | - | - |
| 1788000272 | 21.11° C | 56% | 1017.4 hPa | - | - | - | - |
| 1787999372 | 21.11° C | 56% | 1017.7 hPa | - | - | - | - |
| 1787998474 | 21.11° C | 56% | 1017.8 hPa | - | - | - | - |
| 1787997574 | 20.56° C | 57% | 1017.9 hPa | - | - | - | - |
| 1787996674 | 20.56° C | 57% | 1018.1 hPa | - | - | - | - |
| 1787995774 | 20° C | 57% | 1018.2 hPa | - | - | - | - |
| 1787994874 | 20° C | 59% | 1018.2 hPa | - | - | - | - |
* Rain since midnight (hover to see other rain measurements)
** Current wind speed in m/s (hover to see current wind gust speed)